Starlink 33808

operational
NORAD ID: 63767 Int'l Des: 2025-089 Owner: SPXS Country: US Constellation: starlink
LEOCIRCULAR

Starlink 33808について

説明を読み込み中...

リアルタイム位置

3D地球を読み込み中...

次回通過

高度履歴

Altitude vs Time

uPlot chart will show altitude changes over time

軌道要素

1 63767U 25089S 25354.41583900 .00026022 00000-0 95146-3 0 9992
2 63767 43.0003 132.9286 0002582 284.8045 75.2521 15.27590567 36839
Epoch: Dec 20, 2025 • Age: 24 hours

現在のステータス

高度 483.1 km
速度 7.63 km/s
衛星直下点 14.46°N, 47.88°E
打ち上げ日 Apr 29, 2025
運用期間 0.6 years
タイプ internet

技術仕様

分類 Payload
質量 575.00 kg
乾燥質量 530.00 kg
総質量 575.00 kg
長さ 0.30 m
直径 4.10 m
スパン 29.00 m
形状 Box + pan
製造者 SPXS
バスタイプ Starlink V2MO
フェーズステータス In Orbit
所有者/国 SPXS/US

大規模コンステレーション

Loading constellations...